Terug naar catalogus

ATLAS 5 CENTAUR DEB *

ActiefHEO
NORAD 43950·DEBRIS·🇺🇸 United States

Gelanceerd Sep 17, 2014 vanaf Cape Canaveral Space Force Station

Loading…

Volgende Passages (komende 24 uur)

TLE

VersSource: Space-Track

Epoch: Sep 8, 2026, 23:46 UTC

1 43950U 14055D   26251.99040769 -.00000343  00000-0  00000-0 0  9997
2 43950  22.1321  87.8837 5187308 276.6396  29.3759  1.95805637 57322

Volg ATLAS 5 CENTAUR DEB * in realtime met AllMySat

Download on the App Store